Location: Spring Creek
(38.2870°N, 100.2160°W)
Time: 03:55:01
(UTC+00:00)

Meteor 1-16 Rocket - Pass Details

Date: 08 May 2021
Orbit: 790 x 907 km, 81.2° (Epoch: 22 June)

Event Time Altitude Azimuth Distance (km) Brightness Sun altitude
Rises 09:37:12 0° 348° (NNW) 3,543 7.9 -20.3°
Reaches altitude 10° 09:39:42 10° 346° (NNW) 2,597 7.1 -20.0°
Maximum altitude 09:45:35 68° 264° (W) 966 4.3 -19.1°
Enters shadow 09:49:34 21° 186° (S) 1,890 5.6 -18.5°
